PHENX84 YCRG-YCOM

Flight info

Callsign PHENX84
Flight time 0h 50m
Altitude 8000
Route YCRG YKHA YGEI YJIN YCOM
Aircraft C172/L-SFG/C

Departure

Time 2026-04-16 12:18
Airport Corryong Airport (YCRG)

Arrival

Time 2026-04-16 13:08
Airport Cooma Snowy Mountains Airport (YCOM)
Time Latitude Longitude Altitude Speed Heading
2026-04-16 12:09 -36.18287 147.89281 960 ft 0 kts 124°
2026-04-16 12:10 -36.18288 147.89286 960 ft 4 kts 83°
2026-04-16 12:10 -36.18270 147.89318 960 ft 2 kts
2026-04-16 12:10 -36.18268 147.89317 960 ft 0 kts 336°
2026-04-16 12:13 -36.18222 147.89280 959 ft 14 kts 354°
2026-04-16 12:14 -36.18180 147.89350 958 ft 5 kts 36°
2026-04-16 12:14 -36.18176 147.89318 957 ft 3 kts 251°
2026-04-16 12:14 -36.18189 147.89269 959 ft 25 kts 256°
2026-04-16 12:14 -36.18203 147.89213 955 ft 0 kts 251°
2026-04-16 12:17 -36.18235 147.89082 957 ft 41 kts 252°
2026-04-16 12:17 -36.18382 147.88569 985 ft 79 kts 250°
2026-04-16 12:17 -36.18584 147.87932 1175 ft 84 kts 257°
2026-04-16 12:18 -36.18410 147.87380 1412 ft 76 kts 353°
2026-04-16 12:18 -36.18014 147.87820 1491 ft 94 kts 76°
2026-04-16 12:18 -36.18014 147.88689 1583 ft 106 kts 98°
2026-04-16 12:18 -36.18135 147.89500 1966 ft 87 kts 98°
2026-04-16 12:19 -36.18241 147.90281 2078 ft 103 kts 96°
2026-04-16 12:19 -36.18296 147.91234 2081 ft 118 kts 80°
2026-04-16 12:19 -36.18247 147.92268 2092 ft 125 kts 101°
2026-04-16 12:19 -36.18407 147.93262 2370 ft 109 kts 98°
2026-04-16 12:20 -36.18576 147.94178 2501 ft 111 kts 99°
2026-04-16 12:20 -36.18756 147.95107 2633 ft 111 kts 99°
2026-04-16 12:20 -36.18945 147.96021 2746 ft 112 kts 99°
2026-04-16 12:20 -36.19143 147.96953 2824 ft 108 kts 99°
2026-04-16 12:21 -36.19459 147.97690 3039 ft 96 kts 109°
2026-04-16 12:21 -36.19638 147.98432 3243 ft 87 kts 90°
2026-04-16 12:21 -36.19649 147.99226 3243 ft 104 kts 86°
2026-04-16 12:21 -36.19801 148.00218 3126 ft 124 kts 97°
2026-04-16 12:22 -36.19870 148.01291 3072 ft 129 kts 89°
2026-04-16 12:22 -36.19932 148.02378 3069 ft 126 kts 89°
2026-04-16 12:22 -36.19995 148.03429 3062 ft 121 kts 89°
2026-04-16 12:22 -36.20055 148.04462 3057 ft 120 kts 89°
2026-04-16 12:23 -36.20109 148.05492 3060 ft 119 kts 89°
2026-04-16 12:23 -36.20165 148.06520 3059 ft 120 kts 89°
2026-04-16 12:23 -36.20219 148.07544 3058 ft 119 kts 89°
2026-04-16 12:23 -36.20298 148.08535 2914 ft 111 kts 95°
2026-04-16 12:24 -36.20512 148.09444 2486 ft 111 kts 110°
2026-04-16 12:24 -36.20940 148.10235 2072 ft 109 kts 150°
2026-04-16 12:24 -36.21552 148.10579 1707 ft 91 kts 184°
2026-04-16 12:24 -36.22113 148.10790 1542 ft 82 kts 124°
2026-04-16 12:25 -36.21849 148.11345 1168 ft 92 kts
2026-04-16 12:25 -36.21320 148.11004 959 ft 78 kts 332°
2026-04-16 12:25 -36.20870 148.10614 1097 ft 86 kts 331°
2026-04-16 12:25 -36.20363 148.10277 1391 ft 79 kts 345°
2026-04-16 12:26 -36.19800 148.10321 1610 ft 85 kts 34°
2026-04-16 12:26 -36.19591 148.10956 1905 ft 82 kts 96°
2026-04-16 12:26 -36.20039 148.11348 2030 ft 97 kts 179°
2026-04-16 12:26 -36.20680 148.11446 2202 ft 101 kts 161°
2026-04-16 12:27 -36.21320 148.11627 2451 ft 95 kts 171°
2026-04-16 12:27 -36.22041 148.11735 2540 ft 106 kts 161°
2026-04-16 12:27 -36.22695 148.11971 2854 ft 93 kts 162°
2026-04-16 12:27 -36.23323 148.12203 3032 ft 96 kts 163°
2026-04-16 12:28 -36.23962 148.12441 3231 ft 96 kts 162°
2026-04-16 12:28 -36.24606 148.12691 3421 ft 98 kts 163°
2026-04-16 12:28 -36.25260 148.12960 3610 ft 100 kts 162°
2026-04-16 12:28 -36.25919 148.13245 3816 ft 101 kts 163°
2026-04-16 12:29 -36.26575 148.13552 4010 ft 101 kts 163°
2026-04-16 12:29 -36.27273 148.13887 4086 ft 118 kts 163°
2026-04-16 12:29 -36.28097 148.14274 4072 ft 133 kts 163°
2026-04-16 12:29 -36.28980 148.14685 4063 ft 139 kts 163°
2026-04-16 12:30 -36.29899 148.15107 4071 ft 144 kts 163°
2026-04-16 12:30 -36.30837 148.15554 4067 ft 144 kts 162°
2026-04-16 12:30 -36.31776 148.15986 4070 ft 144 kts 163°
2026-04-16 12:30 -36.32713 148.16417 4081 ft 142 kts 165°
2026-04-16 12:31 -36.33638 148.16764 3944 ft 140 kts 170°
2026-04-16 12:31 -36.34589 148.16984 3694 ft 141 kts 175°
2026-04-16 12:31 -36.35566 148.17138 3358 ft 138 kts 173°
2026-04-16 12:31 -36.36520 148.17334 2922 ft 135 kts 173°
2026-04-16 12:32 -36.37397 148.17388 2809 ft 125 kts 181°
2026-04-16 12:32 -36.38261 148.17422 2716 ft 122 kts 179°
2026-04-16 12:32 -36.39111 148.17539 2602 ft 121 kts 182°
2026-04-16 12:32 -36.39917 148.17395 2575 ft 108 kts 194°
2026-04-16 12:33 -36.40513 148.17770 2420 ft 113 kts 102°
2026-04-16 12:33 -36.40173 148.18415 2195 ft 94 kts 13°
2026-04-16 12:33 -36.39565 148.18524 1966 ft 89 kts 358°
2026-04-16 12:33 -36.38970 148.18438 1745 ft 86 kts 347°
2026-04-16 12:34 -36.38427 148.18169 1463 ft 85 kts 336°
2026-04-16 12:34 -36.37895 148.17870 1454 ft 77 kts 336°
2026-04-16 12:34 -36.37419 148.17561 1665 ft 70 kts 355°
2026-04-16 12:34 -36.37196 148.17761 1784 ft 74 kts 84°
2026-04-16 12:35 -36.37913 148.18179 1793 ft 103 kts 169°
2026-04-16 12:35 -36.38387 148.18352 1922 ft 107 kts 161°
2026-04-16 12:35 -36.38862 148.18885 2273 ft 93 kts 92°
2026-04-16 12:35 -36.38832 148.19581 2609 ft 78 kts 78°
2026-04-16 12:36 -36.38566 148.20263 2677 ft 102 kts 51°
2026-04-16 12:36 -36.38184 148.21059 2842 ft 111 kts 52°
2026-04-16 12:36 -36.37879 148.21896 3260 ft 97 kts 59°
2026-04-16 12:36 -36.37629 148.22651 3558 ft 97 kts 67°
2026-04-16 12:37 -36.37378 148.23415 3760 ft 98 kts 63°
2026-04-16 12:37 -36.37131 148.24171 4018 ft 91 kts 64°
2026-04-16 12:37 -36.36885 148.24922 4207 ft 92 kts 65°
2026-04-16 12:37 -36.36650 148.25629 4346 ft 97 kts 69°
2026-04-16 12:38 -36.36473 148.26456 4628 ft 100 kts 73°
2026-04-16 12:38 -36.36269 148.27324 4852 ft 109 kts 71°
2026-04-16 12:38 -36.36075 148.28228 5047 ft 112 kts 70°
2026-04-16 12:38 -36.35990 148.29222 5240 ft 126 kts 103°
2026-04-16 12:39 -36.35998 148.30229 5432 ft 119 kts 58°
2026-04-16 12:39 -36.35735 148.31182 5610 ft 116 kts 44°
2026-04-16 12:39 -36.35150 148.31678 5946 ft 100 kts 17°
2026-04-16 12:39 -36.34564 148.32161 6242 ft 102 kts 12°
2026-04-16 12:40 -36.33953 148.32621 6564 ft 105 kts 17°
2026-04-16 12:40 -36.33357 148.33112 6697 ft 103 kts 15°
2026-04-16 12:40 -36.32781 148.33712 6834 ft 108 kts 25°
2026-04-16 12:40 -36.32408 148.34566 7112 ft 134 kts 90°
2026-04-16 12:41 -36.32584 148.35691 7302 ft 135 kts 98°
2026-04-16 12:41 -36.32792 148.36884 7495 ft 134 kts 106°
2026-04-16 12:41 -36.32984 148.38021 7443 ft 140 kts 114°
2026-04-16 12:41 -36.33469 148.39015 7474 ft 137 kts 127°
2026-04-16 12:42 -36.33958 148.40008 7496 ft 132 kts 133°
2026-04-16 12:42 -36.34452 148.40966 7596 ft 127 kts 135°
2026-04-16 12:42 -36.34926 148.41885 7626 ft 130 kts 127°
2026-04-16 12:42 -36.35394 148.42838 7790 ft 128 kts 135°
2026-04-16 12:43 -36.35883 148.43784 7873 ft 133 kts 132°
2026-04-16 12:43 -36.36369 148.44742 8029 ft 129 kts 131°
2026-04-16 12:43 -36.36880 148.45733 8067 ft 142 kts 132°
2026-04-16 12:43 -36.37445 148.46799 8053 ft 149 kts 132°
2026-04-16 12:44 -36.37991 148.47953 7974 ft 161 kts 121°
2026-04-16 12:44 -36.38502 148.49100 8034 ft 151 kts 128°
2026-04-16 12:44 -36.38973 148.50278 7992 ft 152 kts 120°
2026-04-16 12:44 -36.39403 148.51427 8029 ft 146 kts 121°
2026-04-16 12:45 -36.39810 148.52566 8049 ft 145 kts 121°
2026-04-16 12:45 -36.40219 148.53755 8047 ft 152 kts 119°
2026-04-16 12:45 -36.40653 148.54986 7948 ft 156 kts 121°
2026-04-16 12:45 -36.41067 148.56208 7595 ft 165 kts 109°
2026-04-16 12:46 -36.41487 148.57496 7222 ft 156 kts 132°
2026-04-16 12:46 -36.42201 148.58511 6842 ft 147 kts 146°
2026-04-16 12:46 -36.42907 148.59293 6594 ft 135 kts 160°
2026-04-16 12:46 -36.43762 148.59600 6183 ft 122 kts 199°
2026-04-16 12:47 -36.44471 148.59318 5540 ft 90 kts 258°
2026-04-16 12:47 -36.44783 148.58822 5147 ft 73 kts 254°
2026-04-16 12:47 -36.45398 148.58686 4519 ft 120 kts 168°
2026-04-16 12:47 -36.45821 148.59628 3981 ft 132 kts 75°
2026-04-16 12:48 -36.45338 148.60414 3937 ft 102 kts 21°
2026-04-16 12:48 -36.44707 148.60554 3883 ft 83 kts
2026-04-16 12:48 -36.44167 148.60690 3763 ft 78 kts 11°
2026-04-16 12:48 -36.43821 148.61079 3914 ft 74 kts 98°
2026-04-16 12:49 -36.44259 148.61649 3694 ft 107 kts 145°
2026-04-16 12:49 -36.44741 148.62273 3656 ft 100 kts 97°
2026-04-16 12:49 -36.44306 148.62640 3633 ft 93 kts 326°
2026-04-16 12:49 -36.44006 148.62066 3722 ft 70 kts 296°
2026-04-16 12:50 -36.43795 148.61502 3638 ft 75 kts 297°
2026-04-16 12:50 -36.43528 148.60918 3553 ft 77 kts 301°
2026-04-16 12:50 -36.43207 148.60419 3436 ft 71 kts 311°
2026-04-16 12:50 -36.42901 148.59967 3356 ft 57 kts 306°
2026-04-16 12:51 -36.42751 148.59734 3354 ft 13 kts 311°
2026-04-16 12:51 -36.42738 148.59698 3350 ft 0 kts 249°
2026-04-16 12:51 -36.42756 148.59683 3357 ft 7 kts 144°
2026-04-16 12:51 -36.42771 148.59716 3351 ft 0 kts 117°
2026-04-16 12:52 -36.42797 148.59757 3349 ft 14 kts 129°
2026-04-16 12:52 -36.42877 148.59869 3353 ft 18 kts 133°
2026-04-16 12:53 -36.42944 148.59975 3364 ft 14 kts 129°
2026-04-16 12:53 -36.43011 148.60077 3367 ft 14 kts 128°
2026-04-16 12:53 -36.43063 148.60154 3373 ft 12 kts 131°
2026-04-16 12:53 -36.43108 148.60221 3377 ft 0 kts 130°
2026-04-16 12:54 -36.43109 148.60241 3378 ft 7 kts 59°
2026-04-16 12:54 -36.43077 148.60252 3376 ft 4 kts 307°
2026-04-16 12:54 -36.43072 148.60243 3375 ft 0 kts 310°
2026-04-16 12:55 -36.43017 148.60163 3371 ft 36 kts 310°
2026-04-16 12:55 -36.42750 148.59800 3397 ft 67 kts 313°
2026-04-16 12:56 -36.42299 148.59552 3502 ft 82 kts 11°
2026-04-16 12:56 -36.41923 148.60115 3588 ft 100 kts 76°
2026-04-16 12:56 -36.41797 148.60943 3844 ft 92 kts 70°
2026-04-16 12:56 -36.41570 148.61723 4106 ft 91 kts 63°
2026-04-16 12:57 -36.41279 148.62415 4383 ft 85 kts 48°
2026-04-16 12:57 -36.41013 148.63200 4394 ft 109 kts 68°
2026-04-16 12:57 -36.40828 148.64045 4762 ft 100 kts 67°
2026-04-16 12:57 -36.40658 148.64908 4965 ft 105 kts 67°
2026-04-16 12:58 -36.40474 148.65801 5172 ft 107 kts 67°
2026-04-16 12:58 -36.40296 148.66707 5385 ft 110 kts 69°
2026-04-16 12:58 -36.40110 148.67629 5535 ft 110 kts 67°
2026-04-16 12:58 -36.39927 148.68567 5689 ft 112 kts 67°
2026-04-16 12:59 -36.39741 148.69519 5834 ft 115 kts 67°
2026-04-16 12:59 -36.39539 148.70484 5979 ft 117 kts 66°
2026-04-16 12:59 -36.39329 148.71500 6045 ft 129 kts 67°
2026-04-16 13:00 -36.38797 148.73862 6036 ft 150 kts 66°
2026-04-16 13:00 -36.38520 148.75124 6033 ft 152 kts 68°
2026-04-16 13:00 -36.38241 148.76385 6032 ft 152 kts 67°
2026-04-16 13:00 -36.37936 148.77644 6040 ft 153 kts 68°
2026-04-16 13:01 -36.37617 148.78910 6042 ft 154 kts 67°
2026-04-16 13:01 -36.37297 148.80193 6039 ft 156 kts 67°
2026-04-16 13:01 -36.36977 148.81477 6033 ft 155 kts 64°
2026-04-16 13:01 -36.36605 148.82714 6027 ft 152 kts 63°
2026-04-16 13:02 -36.36229 148.83942 6032 ft 153 kts 62°
2026-04-16 13:02 -36.35856 148.85164 6026 ft 150 kts 62°
2026-04-16 13:02 -36.35491 148.86369 6024 ft 149 kts 62°
2026-04-16 13:02 -36.35127 148.87565 6020 ft 148 kts 62°
2026-04-16 13:03 -36.34763 148.88748 6020 ft 146 kts 62°
2026-04-16 13:03 -36.34403 148.89923 6019 ft 145 kts 62°
2026-04-16 13:03 -36.34043 148.91096 6023 ft 146 kts 62°
2026-04-16 13:03 -36.33692 148.92280 6023 ft 147 kts 62°
2026-04-16 13:04 -36.33340 148.93463 6025 ft 145 kts 62°
2026-04-16 13:04 -36.33032 148.94594 5792 ft 138 kts 66°
2026-04-16 13:04 -36.32734 148.95753 5313 ft 130 kts 75°
2026-04-16 13:04 -36.32276 148.96502 4785 ft 96 kts 40°
2026-04-16 13:05 -36.31672 148.96825 3927 ft 93 kts 25°
2026-04-16 13:05 -36.31104 148.96954 3499 ft 79 kts 13°
2026-04-16 13:05 -36.30491 148.97101 3307 ft 89 kts
2026-04-16 13:05 -36.29866 148.97244 3232 ft 96 kts
2026-04-16 13:06 -36.29240 148.97418 3330 ft 85 kts 12°
2026-04-16 13:06 -36.28965 148.97986 3273 ft 114 kts 128°
2026-04-16 13:06 -36.29675 148.98375 3494 ft 105 kts 169°
2026-04-16 13:06 -36.30388 148.98515 3577 ft 109 kts 178°
2026-04-16 13:07 -36.31113 148.98720 3701 ft 107 kts 162°
2026-04-16 13:07 -36.31787 148.98949 3770 ft 95 kts 204°
2026-04-16 13:07 -36.32028 148.98389 3778 ft 79 kts 296°
2026-04-16 13:07 -36.31652 148.97826 3548 ft 78 kts 324°
2026-04-16 13:08 -36.31220 148.97475 3211 ft 70 kts 325°
2026-04-16 13:08 -36.30829 148.97189 3085 ft 57 kts 329°
2026-04-16 13:08 -36.30630 148.97043 3081 ft 7 kts 340°
2026-04-16 13:08 -36.30600 148.97060 3083 ft 6 kts 41°
2026-04-16 13:09 -36.30515 148.97092 3081 ft 21 kts 11°
2026-04-16 13:09 -36.30318 148.97142 3080 ft 35 kts
2026-04-16 13:09 -36.30051 148.97230 3077 ft 44 kts 14°
2026-04-16 13:09 -36.29742 148.97320 3066 ft 46 kts 12°
2026-04-16 13:10 -36.29519 148.97386 3064 ft 21 kts 11°
2026-04-16 13:10 -36.29400 148.97420 3062 ft 14 kts
2026-04-16 13:10 -36.29366 148.97362 3062 ft 13 kts 286°
2026-04-16 13:10 -36.29345 148.97250 3062 ft 12 kts 282°
2026-04-16 13:11 -36.29331 148.97162 3061 ft 7 kts 281°
2026-04-16 13:11 -36.29307 148.97135 3062 ft 5 kts 20°
2026-04-16 13:11 -36.29284 148.97145 3061 ft 1 kts 88°
2026-04-16 13:11 -36.29284 148.97146 3061 ft 0 kts 90°